Silver City, NM

3:39 AM MST on December 10, 2019 (GMT -0700)
Grant County

Weather History for KSVC - October, 2019

Change the Weather History Date:

Thursday, October 10, 2019

  Actual Average (WUND) Record (WUND)
Temperature  
Mean Temperature 61 °F -  
Max Temperature 75 °F - - (-1)
Min Temperature 47 °F - - (-1)
Degree Days  
Heating Degree Days 4    
Growing Degree Days 11 (Base 50)    
Moisture  
Dew Point 32 °F    
Average Humidity 36    
Maximum Humidity 62    
Minimum Humidity 15    
Precipitation  
Precipitation 0.00 in - - ()
Sea Level Pressure  
Sea Level Pressure 30.00 in    
Wind  
Wind Speed 12 mph (WNW)    
Max Wind Speed 26 mph    
Max Gust Speed 36 mph    
Visibility 10 miles    
Events      
Averages and records for this station are not official NWS values.
T = Trace of Precipitation, MM = Missing Value Source: NWS Daily Summary

Daily Weather History Graph

Daily Weather History Graph

Search for Another Location

Airport or City:

Astronomy

Oct. 10, 2019 Rise Set
Actual Time 7:12 AM MDT 6:45 PM MDT
Civil Twilight 6:48 AM MDT 7:10 PM MDT
Nautical Twilight 6:19 AM MDT 7:39 PM MDT
Astronomical Twilight 5:51 AM MDT 8:07 PM MDT
Moon 5:35 PM MDT 4:14 AM MDT
Length of Visible Light 12h 22m
Length of Day
11h 33m
Waxing Gibbous, 91% of the Moon is Illuminated
Oct 10
Waxing Gibbous
Oct 13
Full
Oct 21
Last Quarter
Oct 27
New
Nov 4
First Quarter

Hourly Weather History & Observations

Time (MDT) Temp. Dew Point Humidity Pressure Visibility Wind Dir Wind Speed Gust Speed Precip Events Conditions
12:15 AM 56.3 °F 34.2 °F 43% 29.98 in 10.0 mi WNW 11.5 mph - N/A   Clear
12:35 AM 57.4 °F 34.3 °F 42% 29.97 in 10.0 mi WNW 11.5 mph - N/A   Clear
12:55 AM 56.5 °F 34.5 °F 44% 29.97 in 10.0 mi WNW 10.4 mph - N/A   Clear
1:15 AM 54.1 °F 34.9 °F 48% 29.97 in 10.0 mi WNW 8.1 mph - N/A   Clear
1:35 AM 53.6 °F 35.1 °F 50% 29.97 in 10.0 mi West 6.9 mph - N/A   Clear
1:55 AM 57.6 °F 35.4 °F 43% 29.96 in 10.0 mi West 10.4 mph - N/A   Clear
2:15 AM 60.8 °F 35.6 °F 39% 29.96 in 10.0 mi West 9.2 mph 17.3 mph N/A   Clear
2:55 AM 59.0 °F 36.5 °F 43% 29.96 in 10.0 mi West 10.4 mph - N/A   Clear
3:15 AM 58.6 °F 36.5 °F 44% 29.96 in 10.0 mi West 10.4 mph - N/A   Clear
3:35 AM 59.5 °F 36.1 °F 42% 29.96 in 10.0 mi West 10.4 mph - N/A   Clear
3:55 AM 60.3 °F 36.1 °F 41% 29.96 in 10.0 mi West 10.4 mph - N/A   Clear
4:15 AM 59.7 °F 36.7 °F 42% 29.96 in 10.0 mi West 9.2 mph - N/A   Clear
4:35 AM 52.2 °F 37.4 °F 57% 29.96 in 10.0 mi WNW 6.9 mph - N/A   Clear
4:55 AM 54.7 °F 37.6 °F 53% 29.96 in 10.0 mi West 9.2 mph - N/A   Clear
5:15 AM 54.7 °F 37.9 °F 53% 29.97 in 10.0 mi WNW 10.4 mph - N/A   Clear
5:35 AM 51.3 °F 37.9 °F 60% 29.97 in 10.0 mi NW 10.4 mph - N/A   Clear
5:55 AM 51.1 °F 37.9 °F 61% 29.97 in 10.0 mi NW 10.4 mph - N/A   Clear
6:15 AM 50.9 °F 38.3 °F 62% 29.97 in 10.0 mi WNW 8.1 mph - N/A   Clear
6:35 AM 52.7 °F 37.8 °F 57% 29.98 in 10.0 mi NW 9.2 mph - N/A   Clear
6:55 AM 52.0 °F 37.9 °F 59% 29.98 in 10.0 mi NW 11.5 mph - N/A   Clear
7:15 AM 52.7 °F 37.8 °F 57% 29.99 in 10.0 mi NW 11.5 mph - N/A   Clear
7:35 AM 53.6 °F 37.9 °F 55% 30.00 in 10.0 mi NW 12.7 mph - N/A   Clear
7:55 AM 53.8 °F 38.8 °F 57% 30.00 in 10.0 mi NW 10.4 mph - N/A   Clear
8:15 AM 56.8 °F 38.3 °F 50% 30.00 in 10.0 mi WNW 9.2 mph - N/A   Clear
8:35 AM 58.3 °F 38.5 °F 48% 30.02 in 10.0 mi NNW 11.5 mph - N/A   Clear
8:55 AM 60.3 °F 37.6 °F 43% 30.03 in 10.0 mi NW 10.4 mph - N/A   Clear
9:15 AM 62.1 °F 36.9 °F 39% 30.03 in 10.0 mi WNW 11.5 mph - N/A   Clear
9:35 AM 64.2 °F 33.8 °F 32% 30.04 in 10.0 mi West 16.1 mph 21.9 mph N/A   Clear
9:55 AM 65.7 °F 32.0 °F 29% 30.04 in 10.0 mi West 19.6 mph - N/A   Clear
10:15 AM 66.2 °F 31.8 °F 28% 30.04 in 10.0 mi West 18.4 mph - N/A   Clear
10:35 AM 67.5 °F 31.8 °F 27% 30.04 in 10.0 mi West 18.4 mph - N/A   Clear
10:55 AM 68.0 °F 31.6 °F 26% 30.04 in 10.0 mi West 17.3 mph 23.0 mph N/A   Clear
11:15 AM 68.0 °F 31.6 °F 26% 30.04 in 10.0 mi West 12.7 mph - N/A   Clear
11:35 AM 68.4 °F 30.9 °F 25% 30.03 in 10.0 mi West 11.5 mph 17.3 mph N/A   Clear
11:55 AM 69.6 °F 31.3 °F 24% 30.03 in 10.0 mi West 18.4 mph 23.0 mph N/A   Clear
12:15 PM 70.5 °F 30.2 °F 22% 30.02 in 10.0 mi West 19.6 mph 25.3 mph N/A   Clear
12:35 PM 71.2 °F 30.0 °F 22% 30.02 in 10.0 mi West 19.6 mph 28.8 mph N/A   Clear
12:55 PM 72.1 °F 29.5 °F 21% 30.01 in 10.0 mi West 18.4 mph 29.9 mph N/A   Clear
1:15 PM 72.5 °F 28.9 °F 20% 30.00 in 10.0 mi West 21.9 mph 29.9 mph N/A   Clear
1:35 PM 72.5 °F 28.8 °F 20% 30.00 in 10.0 mi WSW 17.3 mph 25.3 mph N/A   Clear
1:55 PM 73.0 °F 28.2 °F 19% 29.99 in 10.0 mi West 21.9 mph 32.2 mph N/A   Clear
2:15 PM 73.2 °F 27.3 °F 18% 29.98 in 10.0 mi WSW 21.9 mph 32.2 mph N/A   Clear
2:35 PM 74.1 °F 25.0 °F 16% 29.97 in 10.0 mi West 21.9 mph 35.7 mph N/A   Clear
2:55 PM 74.3 °F 24.6 °F 16% 29.97 in 10.0 mi West 26.5 mph 34.5 mph N/A   Clear
3:35 PM 73.9 °F 23.9 °F 15% 29.97 in 10.0 mi West 23.0 mph 29.9 mph N/A   Clear
3:55 PM 74.8 °F 25.2 °F 16% 29.97 in 10.0 mi WSW 16.1 mph 29.9 mph N/A   Clear
4:15 PM 74.5 °F 24.4 °F 16% 29.97 in 10.0 mi West 19.6 mph 29.9 mph N/A   Clear
4:35 PM 74.1 °F 24.8 °F 16% 29.96 in 10.0 mi WSW 17.3 mph 26.5 mph N/A   Clear
4:55 PM 74.5 °F 25.5 °F 16% 29.97 in 10.0 mi West 11.5 mph 21.9 mph N/A   Clear
5:15 PM 73.8 °F 25.7 °F 17% 29.96 in 10.0 mi WNW 17.3 mph 26.5 mph N/A   Clear
5:35 PM 73.4 °F 26.8 °F 18% 29.97 in 10.0 mi WNW 17.3 mph 24.2 mph N/A   Clear
5:55 PM 72.0 °F 26.6 °F 18% 29.97 in 10.0 mi WNW 18.4 mph 24.2 mph N/A   Clear
6:15 PM 70.5 °F 26.6 °F 19% 29.98 in 10.0 mi West 12.7 mph 20.7 mph N/A   Clear
6:35 PM 68.5 °F 26.6 °F 21% 29.99 in 10.0 mi WNW 13.8 mph - N/A   Clear
6:55 PM 66.0 °F 27.0 °F 23% 30.00 in 10.0 mi West 8.1 mph - N/A   Clear
7:15 PM 63.1 °F 27.5 °F 26% 30.00 in 10.0 mi WNW 8.1 mph - N/A   Clear
7:35 PM 60.1 °F 28.8 °F 30% 30.01 in 10.0 mi WNW 6.9 mph - N/A   Clear
7:55 PM 56.5 °F 29.8 °F 36% 30.02 in 10.0 mi WNW 8.1 mph - N/A   Clear
8:15 PM 56.5 °F 29.7 °F 36% 30.02 in 10.0 mi WNW 9.2 mph - N/A   Clear
8:35 PM 54.9 °F 30.6 °F 40% 30.02 in 10.0 mi NW 10.4 mph - N/A   Clear
8:55 PM 50.7 °F 32.0 °F 49% 30.04 in 10.0 mi NW 8.1 mph - N/A   Clear
9:15 PM 51.1 °F 31.5 °F 47% 30.04 in 10.0 mi NNW 10.4 mph - N/A   Clear
9:35 PM 53.1 °F 30.0 °F 41% 30.04 in 10.0 mi NW 11.5 mph - N/A   Clear
9:55 PM 52.7 °F 28.4 °F 39% 30.06 in 10.0 mi North 13.8 mph - N/A   Clear
10:15 PM 51.3 °F 28.4 °F 41% 30.06 in 10.0 mi NNW 10.4 mph - N/A   Clear
10:35 PM 50.7 °F 27.9 °F 41% 30.07 in 10.0 mi North 9.2 mph - N/A   Clear
10:55 PM 51.8 °F 27.5 °F 39% 30.08 in 10.0 mi North 5.8 mph - N/A   Clear
11:15 PM 48.4 °F 28.4 °F 46% 30.08 in 10.0 mi NNW 8.1 mph - N/A   Clear
11:35 PM 49.8 °F 27.7 °F 42% 30.09 in 10.0 mi NNE 10.4 mph - N/A   Clear
11:55 PM 47.8 °F 27.5 °F 45% 30.09 in 10.0 mi NNW 10.4 mph - N/A   Clear